Location: CCZU
(31.6840°N, 119.9550°E)
Time: 18:21:46
(UTC+08:00)

Tiangong - Pass Details

Date: 16 December 2021
Orbit: 383 x 387 km, 41.5° (Epoch: 19 January)

Event Time Altitude Azimuth Distance (km) Brightness Sun altitude
Rises 17:39:49 0° 304° (WNW) 2,276 5.5 -8.8°
Reaches altitude 10° 17:42:33 10° 329° (NNW) 1,419 4.1 -9.4°
Maximum altitude 17:44:30 15° 6° (N) 1,158 3.2 -9.7°
Enters shadow 17:46:02 12° 38° (NE) 1,324 3.3 -10.0°
